Flag for Canada Weather past 2 weeks in Rainy River, Ontario, Canada

Now
62 °F

Clear.


Feels Like: 62 °F
Forecast: 62 / 74 °F
Wind: 7 mph from Southeast

Location: Baudette International Airport

Current Time: Aug 21, 2014 at 3:57:00 AM

Latest Report: Aug 21, 2014 at 2:53 AM


Visibility: 10 mi

Pressure: 29.83 "Hg

Humidity: 93%

Dew point: 60 °F

Location of Rainy RiverLocation

Historic Weather in Rainy River — Graph

°F

Rainy River temperature yesterday

Maximum temperature yesterday: 78 °F (at 3:53 PM)
Minimum temperature yesterday: 57 °F (at 5:53 AM)
Average temperature yesterday: 68 °F

Past Weeks' High & Low Weather Summary

 TemperatureHumidityPressure
High85 °F (Aug 15, 2:53 PM)100% (Aug 13, 5:53 AM)30.17 "Hg (Aug 13, 5:53 AM)
Low50 °F (Aug 14, 5:53 AM)44% (Aug 7, 4:53 PM)29.69 "Hg (Aug 19, 1:53 AM)
Average67 °F76%29.99 "Hg
* Reported Aug 6 1:53 AM — Aug 21 1:53 AM, Rainy River, Weather by CustomWeather, © 2014

Note: Actual official high and low records may vary slightly from our data, if they occured in-between our weather recording intervals... More about our weather records

Advertising

Rainy River weather history for previous 24 hours

 ConditionsComfort  
Time TempWeatherWind HumidityBarometerVisibility
1:53 AM
Aug 21
61 °FClear.6 mph93%29.85 "Hg10 mi
12:53 AM62 °FClear.No wind90%29.88 "Hg10 mi
11:53 PM
Aug 20
64 °FClear.No wind87%29.88 "Hg10 mi
10:53 PM66 °FClear.5 mph84%29.87 "Hg10 mi
9:53 PM65 °FClear.7 mph87%29.86 "Hg10 mi
8:53 PM67 °FSunny.6 mph81%29.87 "Hg10 mi
7:53 PM72 °FSunny.6 mph68%29.85 "Hg10 mi
6:53 PM75 °FSunny.3 mph64%29.86 "Hg10 mi
5:53 PM76 °FSunny.7 mph60%29.86 "Hg10 mi
4:53 PM77 °FSunny.10 mph60%29.86 "Hg10 mi
3:53 PM78 °FPartly sunny.7 mph58%29.86 "Hg10 mi
2:53 PM76 °FOvercast.7 mph58%29.86 "Hg10 mi
1:53 PM77 °FSunny.6 mph58%29.84 "Hg10 mi
12:53 PM76 °FPartly sunny.10 mph62%29.84 "Hg10 mi
11:53 AM74 °FPartly sunny.9 mph64%29.85 "Hg10 mi
10:53 AM73 °FSunny.8 mph66%29.85 "Hg10 mi
9:53 AM71 °FSunny.6 mph73%29.85 "Hg10 mi
8:53 AM66 °FMild.No wind87%29.86 "Hg10 mi
7:53 AM62 °FPartly sunny.No wind90%29.86 "Hg10 mi
6:53 AM59 °FOvercast.No wind93%29.86 "Hg10 mi
5:53 AM57 °FClear.3 mph96%29.84 "Hg10 mi
4:53 AM58 °FClear.3 mph97%29.83 "Hg10 mi
3:53 AM60 °FClear.3 mph93%29.82 "Hg10 mi
Weather by CustomWeather, © 2014

See weather overviewHow to use our weather pages